Date,CR Cold Stage PRT Temperature (C),CR Intermediate Stage PRT Temperature (C),CR Outer Stage PRT Temperature (C)
28 Apr 2023 1:28,-210.48257,-144.48741,-74.88840
28 Apr 2023 3:08,-210.48198,-144.48392,-74.88809
28 Apr 2023 4:53,-210.48293,-144.49522,-74.88983
28 Apr 2023 6:38,-210.48254,-144.47722,-74.90287
28 Apr 2023 8:18,-210.48019,-144.43413,-74.89626
28 Apr 2023 9:59,-210.47951,-144.41377,-74.87904
28 Apr 2023 11:39,-210.47881,-144.40707,-74.87019
28 Apr 2023 13:19,-210.47752,-144.39824,-74.85448
28 Apr 2023 14:59,-210.47742,-144.38776,-74.84595
28 Apr 2023 16:39,-210.48077,-144.43204,-74.87428
28 Apr 2023 18:24,-210.48114,-144.45584,-74.91347
28 Apr 2023 20:10,-210.47885,-144.42648,-74.92683
28 Apr 2023 21:50,-210.47665,-144.42847,-74.90379
28 Apr 2023 23:30,-210.47855,-144.43636,-74.89354
29 Apr 2023 1:10,-210.47911,-144.46269,-74.91042
29 Apr 2023 2:50,-210.47809,-144.45735,-74.91067
29 Apr 2023 4:30,-210.47827,-144.46690,-74.90184
29 Apr 2023 6:16,-210.47783,-144.44621,-74.90250
29 Apr 2023 8:01,-210.47647,-144.40677,-74.89451
29 Apr 2023 9:41,-210.47499,-144.38850,-74.88714
29 Apr 2023 11:21,-210.47356,-144.38104,-74.86411
29 Apr 2023 13:01,-210.47244,-144.35384,-74.83947
29 Apr 2023 14:41,-210.47247,-144.33902,-74.83578
29 Apr 2023 16:22,-210.47644,-144.38434,-74.86478
29 Apr 2023 18:02,-210.47707,-144.41286,-74.89788
29 Apr 2023 19:47,-210.47597,-144.41121,-74.92434
29 Apr 2023 21:32,-210.47260,-144.39874,-74.90437
29 Apr 2023 23:12,-210.47377,-144.40344,-74.88609
30 Apr 2023 0:52,-210.47552,-144.42252,-74.91417
30 Apr 2023 2:33,-210.47411,-144.42131,-74.91448
30 Apr 2023 4:13,-210.47282,-144.41208,-74.89413
30 Apr 2023 5:53,-210.47310,-144.39868,-74.88378
30 Apr 2023 7:38,-210.47260,-144.38925,-74.89716
30 Apr 2023 9:23,-210.46967,-144.35666,-74.87483
30 Apr 2023 11:03,-210.46866,-144.35120,-74.84644
30 Apr 2023 12:44,-210.46649,-144.31967,-74.82470
30 Apr 2023 14:24,-210.46687,-144.30313,-74.81863
30 Apr 2023 16:04,-210.47023,-144.33195,-74.84769
30 Apr 2023 17:44,-210.47107,-144.35077,-74.87727
30 Apr 2023 19:24,-210.46921,-144.32120,-74.89132
30 Apr 2023 21:04,-210.46605,-144.32803,-74.88733
30 Apr 2023 22:55,-210.46741,-144.33803,-74.86687
1 May 2023 0:35,-210.46895,-144.33957,-74.88571
1 May 2023 2:15,-210.46718,-144.34126,-74.88617
1 May 2023 3:55,-210.46613,-144.31827,-74.86990
1 May 2023 5:35,-210.46695,-144.31821,-74.87203
1 May 2023 7:15,-210.46606,-144.32054,-74.87458
1 May 2023 9:01,-210.46829,-144.31378,-74.88697
1 May 2023 10:46,-210.46619,-144.30208,-74.87351
1 May 2023 12:26,-210.46315,-144.29024,-74.84760
1 May 2023 14:06,-210.46317,-144.26344,-74.83041
1 May 2023 15:46,-210.46875,-144.28995,-74.86056
1 May 2023 17:27,-210.47055,-144.32181,-74.89468
1 May 2023 19:07,-210.47008,-144.30833,-74.90686
1 May 2023 20:47,-210.46861,-144.31642,-74.91450
1 May 2023 22:32,-210.47017,-144.33226,-74.91220
2 May 2023 0:17,-210.47047,-144.32588,-74.91744
2 May 2023 1:57,-210.46965,-144.31868,-74.91777
2 May 2023 3:38,-210.46899,-144.30565,-74.88732
2 May 2023 5:18,-210.47038,-144.30586,-74.89394
2 May 2023 6:58,-210.47046,-144.31181,-74.90001
2 May 2023 8:38,-210.47002,-144.29474,-74.89668
2 May 2023 10:23,-210.46895,-144.29935,-74.89277
2 May 2023 12:08,-210.46886,-144.30339,-74.87852
2 May 2023 13:49,-210.46869,-144.28786,-74.88081
2 May 2023 15:29,-210.47047,-144.30206,-74.89652
2 May 2023 17:09,-210.47331,-144.35390,-74.92788
2 May 2023 18:49,-210.47383,-144.35719,-74.96011
2 May 2023 20:29,-210.47307,-144.36028,-74.98481
2 May 2023 22:09,-210.47299,-144.37366,-74.99468
2 May 2023 23:55,-210.47345,-144.39450,-74.99449
3 May 2023 1:40,-210.47247,-144.36432,-74.98000
3 May 2023 3:20,-210.47256,-144.34419,-74.95559
3 May 2023 5:00,-210.47379,-144.34789,-74.96680
3 May 2023 6:40,-210.47337,-144.33690,-74.97052
3 May 2023 8:20,-210.47275,-144.31931,-74.97502
3 May 2023 9:58,-210.47198,-144.32114,-74.97276
3 May 2023 11:46,-210.47281,-144.33867,-74.96792
3 May 2023 13:31,-210.47104,-144.31822,-74.95764
3 May 2023 15:11,-210.47272,-144.33627,-74.95065
3 May 2023 16:51,-210.47652,-144.39540,-74.99138
3 May 2023 18:31,-210.47639,-144.40411,-75.01430
3 May 2023 20:12,-210.47493,-144.38815,-75.01999
3 May 2023 21:52,-210.47452,-144.38188,-75.02659
3 May 2023 23:32,-210.47382,-144.37299,-74.99049
4 May 2023 1:17,-210.47371,-144.36188,-74.97469
4 May 2023 3:02,-210.47321,-144.34090,-74.92896
4 May 2023 4:42,-210.47423,-144.33141,-74.91813
4 May 2023 6:23,-210.47252,-144.31422,-74.89818
4 May 2023 8:03,-210.47348,-144.29161,-74.88786
4 May 2023 9:43,-210.47234,-144.26669,-74.88932
4 May 2023 11:23,-210.47311,-144.27956,-74.87799
4 May 2023 13:08,-210.47177,-144.28172,-74.87417
4 May 2023 14:53,-210.47394,-144.28908,-74.85902
4 May 2023 16:34,-210.47787,-144.33531,-74.89903
4 May 2023 18:14,-210.47697,-144.34312,-74.92599
4 May 2023 19:54,-210.47655,-144.32336,-74.92146
4 May 2023 21:34,-210.47566,-144.31664,-74.92899
4 May 2023 23:14,-210.47636,-144.33168,-74.90536
5 May 2023 0:55,-210.47655,-144.33728,-74.89729
5 May 2023 2:40,-210.47636,-144.33479,-74.88947
5 May 2023 4:25,-210.47829,-144.31987,-74.88469
5 May 2023 6:05,-210.47688,-144.30418,-74.88443
5 May 2023 7:45,-210.47617,-144.27402,-74.85722
5 May 2023 9:25,-210.47647,-144.24310,-74.85728
5 May 2023 11:06,-210.47627,-144.25174,-74.85027
5 May 2023 12:46,-210.47551,-144.26259,-74.83968
5 May 2023 14:31,-210.47777,-144.26657,-74.84412
5 May 2023 16:16,-210.48093,-144.30240,-74.86632
5 May 2023 17:56,-210.48228,-144.31998,-74.89439
5 May 2023 19:36,-210.48177,-144.30331,-74.91031
5 May 2023 21:17,-210.47888,-144.30611,-74.90641
5 May 2023 22:57,-210.47993,-144.30682,-74.88256
6 May 2023 0:37,-210.48035,-144.31165,-74.87494
6 May 2023 2:17,-210.48071,-144.29935,-74.87037
6 May 2023 4:02,-210.48248,-144.29799,-74.88316
6 May 2023 5:47,-210.48166,-144.28508,-74.89412
6 May 2023 7:28,-210.48032,-144.26643,-74.87744
6 May 2023 9:08,-210.48045,-144.24205,-74.85661
6 May 2023 10:48,-210.48143,-144.25812,-74.85297
6 May 2023 12:28,-210.48112,-144.27374,-74.85098
6 May 2023 14:08,-210.48164,-144.26257,-74.84314
6 May 2023 15:48,-210.48375,-144.28140,-74.85517
6 May 2023 17:34,-210.48489,-144.30035,-74.87619
6 May 2023 19:19,-210.48485,-144.28226,-74.88509
6 May 2023 20:59,-210.48268,-144.28090,-74.87429
6 May 2023 22:39,-210.48456,-144.29103,-74.85752
7 May 2023 0:19,-210.48485,-144.27888,-74.84927
7 May 2023 1:59,-210.48425,-144.25636,-74.84055
7 May 2023 3:40,-210.48544,-144.26535,-74.83504
7 May 2023 5:25,-210.48587,-144.26909,-74.85654
7 May 2023 7:10,-210.48445,-144.25114,-74.84988
7 May 2023 8:50,-210.48427,-144.23148,-74.84377
7 May 2023 10:30,-210.48433,-144.25513,-74.84380
7 May 2023 12:10,-210.48380,-144.26648,-74.83244
7 May 2023 13:51,-210.48349,-144.25162,-74.81963
7 May 2023 15:31,-210.48520,-144.25639,-74.83431
7 May 2023 17:11,-210.48593,-144.26984,-74.85075
7 May 2023 18:56,-210.48706,-144.27914,-74.89064
7 May 2023 20:41,-210.48441,-144.27492,-74.87862
7 May 2023 22:21,-210.48532,-144.28564,-74.86766
7 May 2023 23:47,-210.48376,-144.25006,-74.86158
8 May 2023 0:02,-210.48567,-144.27708,-74.86729
8 May 2023 1:42,-210.48512,-144.27159,-74.85849
8 May 2023 3:22,-210.48561,-144.28020,-74.85107
8 May 2023 5:02,-210.48648,-144.27522,-74.86486
8 May 2023 6:47,-210.48564,-144.28815,-74.87776
8 May 2023 8:33,-210.48463,-144.26497,-74.86386
8 May 2023 10:13,-210.48441,-144.28244,-74.85137
8 May 2023 11:53,-210.48438,-144.28276,-74.83920
8 May 2023 13:33,-210.48335,-144.25691,-74.82600
8 May 2023 15:09,-210.48422,-144.25688,-74.83286
8 May 2023 16:53,-210.48586,-144.28496,-74.83978
8 May 2023 18:34,-210.48758,-144.28400,-74.87842
8 May 2023 20:19,-210.48517,-144.28299,-74.89634
8 May 2023 22:04,-210.48451,-144.29022,-74.87370
8 May 2023 23:44,-210.48499,-144.29280,-74.86049
9 May 2023 1:24,-210.48579,-144.29770,-74.86362
9 May 2023 3:04,-210.48535,-144.30067,-74.86047
9 May 2023 4:45,-210.48653,-144.28920,-74.86423
9 May 2023 6:25,-210.48550,-144.30537,-74.86938
9 May 2023 8:10,-210.48564,-144.28764,-74.87030
9 May 2023 9:55,-210.48445,-144.28325,-74.84995
9 May 2023 11:35,-210.48457,-144.28105,-74.83751
9 May 2023 13:15,-210.48378,-144.25494,-74.83042
9 May 2023 14:56,-210.48442,-144.26523,-74.82935
9 May 2023 16:36,-210.48572,-144.29333,-74.83846
9 May 2023 18:16,-210.48763,-144.30472,-74.87238
9 May 2023 19:56,-210.48589,-144.29044,-74.89429
9 May 2023 21:41,-210.48479,-144.29128,-74.88569
9 May 2023 23:26,-210.48674,-144.30255,-74.87895
10 May 2023 1:07,-210.48645,-144.31012,-74.89101
10 May 2023 2:47,-210.48544,-144.31099,-74.87874
10 May 2023 4:27,-210.48666,-144.29286,-74.88151
10 May 2023 6:07,-210.48547,-144.30475,-74.87838
10 May 2023 7:52,-210.48497,-144.27196,-74.86620
10 May 2023 9:32,-210.48424,-144.26083,-74.85574
10 May 2023 11:18,-210.48418,-144.26013,-74.83396
11 May 2023 0:44,-210.48621,-144.30875,-74.88013
11 May 2023 2:29,-210.48642,-144.31738,-74.88326
11 May 2023 4:09,-210.48640,-144.30083,-74.88160
11 May 2023 5:40,-210.48521,-144.29854,-74.87772
11 May 2023 7:26,-210.48462,-144.30719,-74.87505
11 May 2023 9:10,-210.48444,-144.27405,-74.86262
11 May 2023 10:52,-210.48474,-144.29196,-74.85548
11 May 2023 12:40,-210.48413,-144.28423,-74.83948
11 May 2023 14:20,-210.48392,-144.26938,-74.82336
11 May 2023 16:00,-210.48624,-144.28893,-74.84249
11 May 2023 17:42,-210.48750,-144.30122,-74.88092
11 May 2023 19:21,-210.48756,-144.30573,-74.90691
11 May 2023 21:01,-210.48473,-144.29355,-74.90873
11 May 2023 22:41,-210.48505,-144.30037,-74.88514
12 May 2023 0:26,-210.48630,-144.29666,-74.89038
12 May 2023 2:12,-210.48581,-144.30011,-74.88577
12 May 2023 3:52,-210.48584,-144.27960,-74.87820
12 May 2023 5:32,-210.48589,-144.28186,-74.88410
12 May 2023 7:12,-210.48399,-144.29607,-74.86971
12 May 2023 8:52,-210.48436,-144.25519,-74.85653
12 May 2023 10:32,-210.48438,-144.25313,-74.84482
12 May 2023 12:18,-210.48305,-144.26965,-74.83915
12 May 2023 14:03,-210.48340,-144.23950,-74.81824
12 May 2023 15:43,-210.48506,-144.24968,-74.83920
12 May 2023 17:23,-210.48613,-144.26047,-74.87624
12 May 2023 19:03,-210.48701,-144.26791,-74.90769
12 May 2023 20:43,-210.48462,-144.26018,-74.91975
12 May 2023 22:24,-210.48352,-144.27132,-74.88630
12 May 2023 23:54,-210.48358,-144.24107,-74.86779
13 May 2023 0:04,-210.48523,-144.25867,-74.87315
13 May 2023 1:49,-210.48564,-144.27542,-74.88367
13 May 2023 3:34,-210.48488,-144.26923,-74.86730
13 May 2023 5:14,-210.48561,-144.27310,-74.87023
13 May 2023 6:54,-210.48488,-144.28018,-74.86221
13 May 2023 8:35,-210.48384,-144.25342,-74.85214
13 May 2023 10:15,-210.48376,-144.24374,-74.84025
13 May 2023 11:55,-210.48236,-144.24818,-74.82543
13 May 2023 13:40,-210.48242,-144.22424,-74.80242
13 May 2023 15:25,-210.48340,-144.21461,-74.80847
13 May 2023 17:05,-210.48497,-144.22934,-74.83896
13 May 2023 18:46,-210.48578,-144.24301,-74.86067
13 May 2023 20:26,-210.48471,-144.23933,-74.87862
13 May 2023 22:06,-210.48257,-144.24854,-74.85687
13 May 2023 23:46,-210.48360,-144.23749,-74.82929
14 May 2023 1:26,-210.48515,-144.24962,-74.83492
14 May 2023 3:11,-210.48553,-144.26140,-74.84831
14 May 2023 4:57,-210.48576,-144.25800,-74.84746
14 May 2023 6:37,-210.48460,-144.24997,-74.84431
14 May 2023 8:17,-210.48402,-144.23018,-74.83080
14 May 2023 9:57,-210.48282,-144.21614,-74.83006
14 May 2023 11:37,-210.48174,-144.21797,-74.80530
14 May 2023 13:17,-210.48140,-144.19485,-74.77025
14 May 2023 15:03,-210.48271,-144.19048,-74.78716
14 May 2023 16:48,-210.48486,-144.21954,-74.81410
14 May 2023 18:28,-210.48549,-144.23645,-74.84299
14 May 2023 20:08,-210.48438,-144.22852,-74.85777
14 May 2023 21:48,-210.48390,-144.23915,-74.86425
14 May 2023 23:28,-210.48447,-144.24831,-74.85349
15 May 2023 1:09,-210.48471,-144.25751,-74.84999
15 May 2023 2:49,-210.48445,-144.26050,-74.85007
15 May 2023 4:34,-210.48573,-144.26871,-74.85345
15 May 2023 6:19,-210.48552,-144.24574,-74.85877
15 May 2023 7:59,-210.48413,-144.23996,-74.85881
15 May 2023 9:39,-210.48335,-144.23874,-74.84406
15 May 2023 11:20,-210.48253,-144.24680,-74.81947
15 May 2023 13:00,-210.48225,-144.22604,-74.79043
15 May 2023 14:40,-210.48325,-144.20409,-74.79156
15 May 2023 16:20,-210.48503,-144.23196,-74.81321
15 May 2023 18:05,-210.48572,-144.25241,-74.84454
15 May 2023 19:55,-210.48439,-144.22363,-74.84358
15 May 2023 21:31,-210.48256,-144.21722,-74.84009
15 May 2023 23:11,-210.48300,-144.23038,-74.81413
16 May 2023 0:51,-210.48369,-144.24016,-74.80199
16 May 2023 2:31,-210.48293,-144.21027,-74.79254
16 May 2023 4:11,-210.48354,-144.19508,-74.78264
16 May 2023 5:57,-210.48355,-144.17664,-74.79667
16 May 2023 7:42,-210.48164,-144.17358,-74.78931
16 May 2023 9:22,-210.48109,-144.18031,-74.76281
16 May 2023 11:02,-210.48174,-144.20018,-74.75124
16 May 2023 12:42,-210.48146,-144.18871,-74.74324
16 May 2023 14:22,-210.48203,-144.17805,-74.74994
16 May 2023 16:03,-210.48450,-144.20274,-74.78249
16 May 2023 17:43,-210.48515,-144.21988,-74.82102
16 May 2023 19:28,-210.48412,-144.21060,-74.83212
16 May 2023 21:13,-210.48181,-144.19879,-74.81712
16 May 2023 22:53,-210.48122,-144.19913,-74.77920
17 May 2023 0:33,-210.48267,-144.20850,-74.76180
17 May 2023 2:14,-210.48277,-144.19244,-74.76612
17 May 2023 3:54,-210.48315,-144.17648,-74.75804
17 May 2023 5:34,-210.48318,-144.15047,-74.76217
17 May 2023 7:19,-210.48161,-144.15923,-74.76304
17 May 2023 9:04,-210.48062,-144.15141,-74.73261
17 May 2023 10:49,-210.48154,-144.17439,-74.72977
17 May 2023 12:25,-210.48097,-144.17232,-74.70770
17 May 2023 14:05,-210.48103,-144.13707,-74.71343
17 May 2023 15:45,-210.48274,-144.15331,-74.73055
17 May 2023 17:25,-210.48323,-144.16739,-74.76378
17 May 2023 19:05,-210.48204,-144.15472,-74.76586
17 May 2023 20:50,-210.48102,-144.16412,-74.76407
17 May 2023 22:36,-210.47986,-144.15163,-74.71790
18 May 2023 0:16,-210.48247,-144.15506,-74.71241
18 May 2023 1:56,-210.48196,-144.14607,-74.72844
18 May 2023 3:36,-210.48233,-144.14804,-74.73264
18 May 2023 5:16,-210.48238,-144.12410,-74.74139
18 May 2023 6:56,-210.48053,-144.12173,-74.73634
18 May 2023 8:42,-210.48134,-144.12837,-74.73273
18 May 2023 10:33,-210.48167,-144.14339,-74.73443
18 May 2023 12:02,-210.48125,-144.14772,-74.72951
18 May 2023 13:47,-210.48106,-144.13924,-74.73258
18 May 2023 15:27,-210.48225,-144.13921,-74.74474
18 May 2023 17:07,-210.48444,-144.15649,-74.79681
18 May 2023 18:48,-210.48297,-144.15598,-74.80682
18 May 2023 20:28,-210.48032,-144.14432,-74.77671
18 May 2023 22:13,-210.48062,-144.13297,-74.74236
18 May 2023 23:58,-210.48148,-144.13525,-74.72763
19 May 2023 1:38,-210.48236,-144.13988,-74.72900
19 May 2023 3:19,-210.48248,-144.14528,-74.73870
19 May 2023 4:59,-210.48196,-144.11736,-74.74187
19 May 2023 6:39,-210.48132,-144.11171,-74.74791
19 May 2023 8:19,-210.48189,-144.11092,-74.75782
19 May 2023 10:04,-210.48145,-144.14275,-74.77077
19 May 2023 11:49,-210.48204,-144.14731,-74.76343
19 May 2023 13:33,-210.48114,-144.13109,-74.76693
19 May 2023 15:10,-210.48189,-144.11618,-74.76076
19 May 2023 16:50,-210.48401,-144.14999,-74.81096
19 May 2023 18:32,-210.48294,-144.16751,-74.81783
19 May 2023 20:10,-210.48096,-144.13857,-74.80649
19 May 2023 21:50,-210.48001,-144.10995,-74.78478
19 May 2023 23:36,-210.48129,-144.12656,-74.76714
20 May 2023 1:21,-210.48241,-144.14406,-74.77891
20 May 2023 3:01,-210.48209,-144.13628,-74.79705
20 May 2023 4:41,-210.48146,-144.10794,-74.79495
20 May 2023 6:21,-210.48141,-144.09975,-74.80327
20 May 2023 8:01,-210.48062,-144.09798,-74.80624
20 May 2023 9:42,-210.48073,-144.11279,-74.80965
20 May 2023 11:27,-210.48067,-144.13391,-74.81586
20 May 2023 13:12,-210.47952,-144.12445,-74.79191
20 May 2023 14:52,-210.48085,-144.11050,-74.78405
20 May 2023 16:32,-210.48346,-144.15219,-74.82653
20 May 2023 18:12,-210.48375,-144.17741,-74.83799
20 May 2023 19:53,-210.48207,-144.13730,-74.84599
20 May 2023 21:33,-210.48082,-144.11909,-74.83826
20 May 2023 23:13,-210.48126,-144.14201,-74.81369
21 May 2023 0:58,-210.48399,-144.17404,-74.82843
21 May 2023 2:43,-210.48318,-144.17892,-74.83400
21 May 2023 4:23,-210.48326,-144.15302,-74.82872
21 May 2023 6:04,-210.48312,-144.15462,-74.83855
21 May 2023 7:44,-210.48209,-144.16086,-74.84544
21 May 2023 9:24,-210.48250,-144.17566,-74.84406
21 May 2023 11:04,-210.48257,-144.19017,-74.84429
21 May 2023 12:49,-210.48141,-144.20125,-74.82254
21 May 2023 14:34,-210.48242,-144.18520,-74.81536
21 May 2023 16:15,-210.48442,-144.22678,-74.84225
21 May 2023 17:55,-210.48523,-144.25056,-74.85715
21 May 2023 19:35,-210.48364,-144.19864,-74.86270
21 May 2023 21:15,-210.48196,-144.17662,-74.84806
21 May 2023 22:55,-210.48149,-144.17789,-74.81742
22 May 2023 0:35,-210.48285,-144.17616,-74.81892
22 May 2023 2:21,-210.48210,-144.18958,-74.80861
22 May 2023 4:06,-210.48271,-144.15916,-74.79974
22 May 2023 5:46,-210.48360,-144.15340,-74.81560
22 May 2023 7:26,-210.48276,-144.16216,-74.83578
22 May 2023 9:06,-210.48279,-144.17511,-74.83645
22 May 2023 10:46,-210.48253,-144.19066,-74.84145
22 May 2023 12:27,-210.48117,-144.19553,-74.81573
22 May 2023 14:12,-210.48279,-144.19629,-74.82074
22 May 2023 15:57,-210.48393,-144.20772,-74.83771
22 May 2023 17:37,-210.48396,-144.22633,-74.84906
22 May 2023 19:17,-210.48318,-144.18024,-74.85123
22 May 2023 20:58,-210.48068,-144.16855,-74.83567
22 May 2023 22:38,-210.47958,-144.15747,-74.78703
23 May 2023 0:18,-210.48047,-144.14888,-74.75856
23 May 2023 1:58,-210.48058,-144.14709,-74.73769
23 May 2023 3:43,-210.48170,-144.13768,-74.74335
23 May 2023 5:28,-210.48286,-144.11360,-74.76261
23 May 2023 7:09,-210.48120,-144.11118,-74.79520
23 May 2023 8:49,-210.48070,-144.09892,-74.79569
23 May 2023 10:29,-210.48004,-144.11905,-74.79534
23 May 2023 12:09,-210.47995,-144.11989,-74.77003
23 May 2023 13:49,-210.47993,-144.12413,-74.75491
23 May 2023 15:34,-210.48267,-144.13693,-74.79116
23 May 2023 17:20,-210.48434,-144.15533,-74.83841
23 May 2023 19:00,-210.48244,-144.14146,-74.85817
23 May 2023 20:40,-210.47986,-144.13399,-74.84279
23 May 2023 22:20,-210.47945,-144.12463,-74.80692
23 May 2023 23:45,-210.47670,-144.09354,-74.77133
24 May 2023 0:00,-210.47926,-144.11536,-74.77048
24 May 2023 1:40,-210.48007,-144.10936,-74.74754
24 May 2023 3:21,-210.48033,-144.09206,-74.74359
24 May 2023 5:06,-210.48175,-144.08633,-74.76464
24 May 2023 6:51,-210.47971,-144.05978,-74.78139
24 May 2023 8:31,-210.47914,-144.04129,-74.76361
24 May 2023 10:11,-210.47821,-144.06743,-74.75385
24 May 2023 11:51,-210.47922,-144.07034,-74.74267
24 May 2023 13:32,-210.47884,-144.08197,-74.74622
24 May 2023 15:12,-210.48090,-144.09515,-74.76262
24 May 2023 16:52,-210.48314,-144.13200,-74.82034
24 May 2023 18:37,-210.48279,-144.13965,-74.84436
24 May 2023 20:22,-210.48050,-144.12965,-74.84689
24 May 2023 22:02,-210.47968,-144.13008,-74.82035
24 May 2023 23:43,-210.47894,-144.10976,-74.79494
25 May 2023 1:23,-210.48018,-144.10185,-74.77757
25 May 2023 3:03,-210.48029,-144.10030,-74.77775
25 May 2023 4:43,-210.48122,-144.10236,-74.78625
25 May 2023 6:28,-210.48041,-144.10362,-74.80763
25 May 2023 8:13,-210.47870,-144.07437,-74.79092
25 May 2023 9:54,-210.47815,-144.09377,-74.77924
25 May 2023 11:34,-210.47931,-144.10225,-74.76572
25 May 2023 13:14,-210.47855,-144.10130,-74.76492
25 May 2023 14:54,-210.47929,-144.10626,-74.76570
25 May 2023 16:34,-210.48181,-144.13312,-74.80304
25 May 2023 18:18,-210.48166,-144.14331,-74.81790
25 May 2023 20:00,-210.47995,-144.13019,-74.83195
25 May 2023 21:45,-210.47710,-144.12041,-74.79079
25 May 2023 23:25,-210.47778,-144.10141,-74.75383
26 May 2023 1:05,-210.47774,-144.09895,-74.74165
26 May 2023 2:45,-210.47787,-144.08800,-74.72943
26 May 2023 4:25,-210.47966,-144.09653,-74.74662
26 May 2023 6:06,-210.47925,-144.08574,-74.76295
26 May 2023 7:51,-210.47861,-144.07614,-74.79749
26 May 2023 9:36,-210.47682,-144.07654,-74.78325
26 May 2023 11:16,-210.47673,-144.08389,-74.76521
26 May 2023 12:56,-210.47600,-144.07471,-74.75854
26 May 2023 14:37,-210.47603,-144.08127,-74.74889
26 May 2023 16:17,-210.47914,-144.10780,-74.77830
26 May 2023 17:57,-210.47958,-144.13020,-74.81673
26 May 2023 19:37,-210.47795,-144.10573,-74.84778
26 May 2023 21:22,-210.47490,-144.09877,-74.81543
26 May 2023 23:07,-210.47452,-144.07458,-74.76162
27 May 2023 0:48,-210.47502,-144.07739,-74.75188
27 May 2023 2:28,-210.47505,-144.07715,-74.75045
27 May 2023 4:08,-210.47681,-144.09677,-74.77533
27 May 2023 5:48,-210.47684,-144.07375,-74.80017
27 May 2023 7:28,-210.47449,-144.06604,-74.81884
27 May 2023 9:13,-210.47253,-144.07603,-74.81230
27 May 2023 10:59,-210.47130,-144.08693,-74.76632
27 May 2023 12:39,-210.47089,-144.06894,-74.74284
27 May 2023 14:19,-210.47099,-144.06566,-74.73345
27 May 2023 15:59,-210.47513,-144.09312,-74.75127
27 May 2023 17:39,-210.47615,-144.10536,-74.81390
27 May 2023 19:19,-210.47366,-144.08655,-74.82711
27 May 2023 21:00,-210.47038,-144.07744,-74.79789
27 May 2023 22:45,-210.46950,-144.06868,-74.75526
28 May 2023 0:30,-210.46986,-144.06291,-74.73312
28 May 2023 2:10,-210.46901,-144.06183,-74.72507
28 May 2023 3:50,-210.47163,-144.08495,-74.73216
28 May 2023 5:30,-210.47223,-144.06697,-74.76254
28 May 2023 7:11,-210.47050,-144.07462,-74.79668
28 May 2023 8:51,-210.46840,-144.07188,-74.80312
28 May 2023 10:36,-210.46664,-144.09987,-74.76220
28 May 2023 12:21,-210.46692,-144.07492,-74.73591
28 May 2023 14:01,-210.46614,-144.05882,-74.73000
28 May 2023 15:41,-210.47034,-144.07788,-74.75208
28 May 2023 17:22,-210.47020,-144.07947,-74.80279
28 May 2023 19:02,-210.46780,-144.06569,-74.80419
28 May 2023 20:42,-210.46385,-144.04074,-74.77437
28 May 2023 22:22,-210.46187,-144.01895,-74.74075
28 May 2023 23:52,-210.45815,-144.00774,-74.72197
29 May 2023 0:07,-210.46181,-144.03030,-74.72585
29 May 2023 1:52,-210.46187,-144.02211,-74.70944
29 May 2023 3:33,-210.46452,-144.02754,-74.71735
29 May 2023 5:13,-210.46623,-144.01445,-74.74714
29 May 2023 6:53,-210.46213,-144.02048,-74.75900
29 May 2023 8:33,-210.45877,-144.00714,-74.74626
29 May 2023 10:13,-210.45595,-144.02309,-74.71595
29 May 2023 11:58,-210.45764,-144.02351,-74.70992
29 May 2023 13:44,-210.45711,-144.01399,-74.70045
29 May 2023 15:24,-210.46062,-144.02750,-74.72311
29 May 2023 17:04,-210.46342,-144.05431,-74.76340
29 May 2023 18:44,-210.46075,-144.05768,-74.77297
29 May 2023 20:24,-210.45824,-144.03555,-74.76545
29 May 2023 22:05,-210.45496,-144.03419,-74.74062
29 May 2023 23:45,-210.45337,-144.03732,-74.71119
30 May 2023 1:30,-210.45273,-144.03610,-74.68690
30 May 2023 3:15,-210.45677,-144.04015,-74.68829
30 May 2023 4:55,-210.45926,-144.02321,-74.72370
30 May 2023 6:35,-210.45563,-144.00642,-74.74886
30 May 2023 8:16,-210.44846,-143.99170,-74.73119
30 May 2023 9:56,-210.44649,-143.99731,-74.69836
30 May 2023 11:36,-210.44716,-143.99278,-74.67977
30 May 2023 13:21,-210.44649,-143.98318,-74.67757
30 May 2023 15:06,-210.44746,-143.98412,-74.68256
30 May 2023 16:46,-210.45377,-144.01181,-74.71986
30 May 2023 18:27,-210.45230,-144.01660,-74.73809
30 May 2023 20:07,-210.44691,-143.98636,-74.73302
30 May 2023 21:47,-210.44362,-143.98552,-74.70470
30 May 2023 23:27,-210.44582,-143.99751,-74.67505
31 May 2023 1:07,-210.44740,-143.98863,-74.66405
31 May 2023 2:52,-210.45140,-143.99925,-74.66839
31 May 2023 4:38,-210.45383,-143.98415,-74.67795
31 May 2023 6:18,-210.45264,-143.96971,-74.68687
31 May 2023 7:58,-210.44791,-143.96828,-74.67473
31 May 2023 9:38,-210.44785,-143.97041,-74.64685
31 May 2023 11:18,-210.45023,-143.96664,-74.64212
31 May 2023 12:58,-210.44763,-143.95494,-74.63603
31 May 2023 14:44,-210.44934,-143.96225,-74.63794
31 May 2023 16:29,-210.45752,-143.98210,-74.66008
31 May 2023 18:09,-210.45860,-143.99019,-74.69662
31 May 2023 19:49,-210.45155,-143.94955,-74.68583
31 May 2023 21:29,-210.44687,-143.94284,-74.66146
31 May 2023 23:09,-210.44681,-143.95151,-74.63007
1 Jun 2023 0:50,-210.45247,-143.96127,-74.62798
1 Jun 2023 2:30,-210.45427,-143.95502,-74.64481
1 Jun 2023 4:15,-210.45697,-143.98198,-74.66666
1 Jun 2023 6:00,-210.45532,-143.95935,-74.66962
1 Jun 2023 7:40,-210.45044,-143.95285,-74.66821